User: anonymous   Login
Location: Unspecified
(0.0000°N, 0.0000°E)
Time: 21:50:14
(UTC+02:00)
Language:

Cosmos 1933 - Orbit

View from above orbital plane
View from above orbital plane
View from above satellite
View from above satellite

Ground track
Ground track

The orbit data is extracted from the following two-line orbital elements,

1 18958U 88020A   17291.74666003 +.00000416 +00000-0 +28571-4 0  9999
2 18958 082.5305 344.6220 0010583 215.5551 144.4971 15.03322008588924
Epoch (UTC): 18 October 2017 17:55:11
Eccentricity: 0.0010583
inclination: 82.5305°
perigee height: 549 km
apogee height: 564 km
right ascension of ascending node: 344.6220°
argument of perigee: 215.5551°
revolutions per day: 15.03322008
mean anomaly at epoch: 144.4971°
orbit number at epoch: 58892

The dashed part of the orbit path shows where the satellite is in the earth's shadow,  

DLR